Nanortalik, Greenland

4:58 AM -02 on June 26, 2019 (GMT -0200)
Nanortalik

Weather History for 04285 - January, 2016

Change the Weather History Date:

Sunday, January 17, 2016

  Actual Average Record
Temperature  
Mean Temperature 42 °F -  
Max Temperature 46 °F - - ()
Min Temperature 36 °F - - ()
Degree Days  
Heating Degree Days 24    
Moisture  
Dew Point 28 °F    
Average Humidity 49    
Maximum Humidity 78    
Minimum Humidity 32    
Precipitation  
Precipitation 0.00 in - - ()
Sea Level Pressure  
Sea Level Pressure 29.37 in    
Wind  
Wind Speed 17 mph ()    
Max Wind Speed 43 mph    
Max Gust Speed -    
T = Trace of Precipitation, MM = Missing Value Source: Averaged Metar Reports

Daily Weather History Graph

Daily Weather History Graph

Search for Another Location

Airport or City:

Astronomy

Jan. 17, 2016 Rise Set
Actual Time 8:45 AM -03 3:36 PM -03
Civil Twilight 7:53 AM -03 4:28 PM -03
Nautical Twilight 6:59 AM -03 5:22 PM -03
Astronomical Twilight 6:10 AM -03 6:12 PM -03
Moon 11:20 AM -03 (1/17) 1:05 AM -03 (1/17)
Length of Visible Light 8h 34m
Length of Day
6h 50m
First Quarter, 57% of the Moon is Illuminated
Jan 17
First Quarter
Jan 23
Full
Feb 1
Last Quarter
Feb 8
New
Feb 15
First Quarter

Hourly Weather History & Observations

Time (-03) Temp. Dew Point Humidity Pressure Visibility Wind Dir Wind Speed Gust Speed Precip Events Conditions
12:00 AM 43 °F 26 °F 37% 29.24 in - NNE 16.1 mph - -  
1:00 AM 45 °F 26 °F 34% 29.22 in - NE 21.9 mph - -  
2:00 AM 45 °F 27 °F 36% 29.20 in - NE 42.6 mph - -  
3:00 AM 45 °F 26 °F 34% 29.26 in - ENE 28.8 mph - -  
4:00 AM 43 °F 26 °F 39% 29.28 in - ENE 25.3 mph - -  
5:00 AM 43 °F 27 °F 40% 29.30 in - NE 25.3 mph - -  
6:00 AM 45 °F 26 °F 35% 29.31 in - ENE 16.1 mph - -  
7:00 AM 44 °F 26 °F 37% 29.33 in - NE 21.9 mph - -  
8:00 AM 44 °F 26 °F 36% 29.35 in - NE 13.8 mph - -  
9:00 AM 46 °F 26 °F 32% 29.37 in - NE 9.2 mph - -  
10:00 AM 44 °F 25 °F 35% 29.40 in - NNW 2.3 mph - -  
11:00 AM 42 °F 27 °F 42% 29.42 in - West 9.2 mph - -  
12:00 PM 39 °F 28 °F 53% 29.41 in - West 12.7 mph - -  
1:00 PM 38 °F 28 °F 57% 29.41 in - WNW 12.7 mph - -  
2:00 PM 37 °F 29 °F 62% 29.42 in - NW 19.6 mph - -  
3:00 PM 38 °F 29 °F 59% 29.43 in - WNW 13.8 mph - -  
4:00 PM 38 °F 29 °F 58% 29.44 in - WNW 15.0 mph - -  
5:00 PM 37 °F 29 °F 62% 29.44 in - WNW 9.2 mph - -  
6:00 PM 40 °F 29 °F 55% 29.44 in - North 8.1 mph - -  
7:00 PM 39 °F 30 °F 60% 29.42 in - NNE 21.9 mph - -  
8:00 PM 38 °F 30 °F 65% 29.42 in - NNE 24.2 mph - -  
9:00 PM 37 °F 31 °F 69% 29.42 in - NE 19.6 mph - -  
10:00 PM 37 °F 31 °F 72% 29.42 in - NE 17.3 mph - -  
11:00 PM 36 °F 32 °F 78% 29.42 in - NNE 16.1 mph - -